sat.trackr.live / text

‹ back to catalog

STARLINK-3633

NORAD 51793 · 2022-017AB

PAYLOAD ACTIVE UNKNOWN

§ Identity

Operator
Country
US
Launch date
2022-02-25
Launch site
AFWTR
Launch vehicle
Mass (kg)
RCS (m²)

Purposes: comms

External: N2YO · Heavens-Above · Gunter

§ Orbital elements

Epoch: 2026-05-25T06:00:02.000160Z

Period
90.49 min
Inclination
53.2158°
Eccentricity
0.0000400
Mean motion
15.91311827 rev/d
Perigee alt
298.3 km
Apogee alt
298.9 km
Semi-major
6,676.7 km
B*
1.4106e-3
RAAN
331.8587°
Arg perigee
113.5274°
Mean anomaly
192.1637°
Rev number
586

§ Raw data

STARLINK-36331 51793U 22017AB  26145.25002315  .00458953  91714-4  14106-2 0  99972 51793  53.2158 331.8587 0000400 113.5274 192.1637 15.91311827  5869

JSON: /api/v1/satellites/51793 · /tle

For live sub-satellite position, see the globe view (requires WebGL).

§ Visibility from observer

Set your observer location to see the next 7 days of passes ≥ 10°. The values pass through the URL so the page stays shareable.

No JS? Fill the form by hand. The geolocation button needs JavaScript.